OBJECT YN, 69798

Orbit data source: Space-Track

You're viewing an Uncataloged Satellite

Recently launched and/or uncataloged satellites may have evolving metadata. Metadata may include but not limited to: Owner, Maufacturer, Bus, Motor, and Mission.

OBJECT YN, 69798 is a satellite in LEO that was delivered to and deployed from the ISS. Unknown objects in Earth's orbit typically refer to objects detected orbiting the Earth but have not yet been identified or cataloged. These objects could be anything from previously untracked satellites, spent rocket stages, debris from satellite collisions, or even natural meteoroids temporarily captured by Earth's gravity.

Loading next visibility...
Identifier
69798, 1998-067YN
Orbit
LEO
Country
Flag of TBDTBD
Related business
Flag of USNortheastern University (US)
Manufacturer
NEU
Mission
Operational spacecraft
Bus & Motor
CUBESAT 1U, Unknown motor
Mass
1 kg wet, 1 kg dry
Launch date (UTC)
1998-11-20 (28 years ago)
Launch vehicle
FALCON 9
Launch site
Tyuratam Missile And Space Complex (TTMTR)
Object type
Unknown
Shape & HBR
BOX, 0.1 m
Radar Cross Section
Medium (>0.1 m² and <1 m²)

Expand to show TLE details & history
Last TLE update: 1 day ago

TLE from 1 day ago
0 OBJECT YN
1 69798U 98067YN  26208.09994034  .00031586  00000-0  54022-3 0  9994
2 69798  51.6320 102.3415 0008999 355.7540   4.3371 15.50940044  3843
Epoch: 2026-07-27T02:23Z
TLE epoch observation values (Epoch: 2026-07-27T02:23:54.845Z)
Latitude
-0.00005°
Longitude
121.57457°
Altitude
408.627 km
Speed
7.67 km/s
True Right ascension
06h 49m 21s
True Declination
0° 00' 00"
Sunlit
Object was in daylight at epoch
Visualization orbit readout
Latitude
Unknown
Longitude
Unknown
Altitude
Unknown
Speed
Unknown
Apparent Right ascension
Unknown
Apparent Declination
Unknown
Sunlit
N/A
Visualization observer readout
Local Sidereal Time
16:10:08
Azimuth
Unknown
Elevation
Unknown
Doppler factor
Unknown
Orbital elements
Apogee altitude
420.602 km
Perigee altitude
408.377 km
Semi-major axis
6,792.627 km
Eccentricity
0.0009
Inclination
51.632°
RAAN
102.3415°
Arg. of periapsis
355.754°
True anomaly
4.34491°
Mean anomaly
4.3371°
Eccentric anomaly
4.341°
Mean motion
3.87692 °/min
Orbital period
92.86 mins
BSTAR
0.00054022
Loading maneuver chart data...
Computing Atmospheric mass density...
Loading historical data...
Loading historical data...
Loading historical data...
Loading historical data...
Loading historical data...
Loading historical data...
Loading historical data...

Documentation

Showing up to 5 results
|